Weather History for KMDJ - February, 2014

Change the Weather History Date:

Monday, February 3, 2014

  Actual Average Record
Temperature  
Mean Temperature 60 °F -  
Max Temperature 71 °F - - ()
Min Temperature 50 °F - - ()
Degree Days  
Heating Degree Days 4    
Growing Degree Days 10 (Base 50)    
Moisture  
Dew Point 55 °F    
Average Humidity 95    
Maximum Humidity 100    
Minimum Humidity 88    
Precipitation  
Precipitation 0.00 in - - ()
Sea Level Pressure  
Sea Level Pressure 30.08 in    
Wind  
Wind Speed 17 mph (NNE)    
Max Wind Speed 23 mph    
Max Gust Speed -    
Visibility 10 miles    
Events      
T = Trace of Precipitation, MM = Missing Value Source: NWS Daily Summary

Daily Weather History Graph

Daily Weather History Graph

Search for Another Location

Airport or City:

Trip Planner

Search our weather history database for the weather conditions in past years. The results will help you decide how hot, cold, wet, or windy it might be!

Date:

Astronomy

Feb. 03, 2014 Rise Set
Actual Time 6:46 AM CST 5:40 PM CST
Civil Twilight 6:21 AM CST 6:04 PM CST
Nautical Twilight 5:53 AM CST 6:33 PM CST
Astronomical Twilight 5:25 AM CST 7:00 PM CST
Moon 9:13 AM CST (2/3) 10:02 PM CST (2/3)
Length of Visible Light 11h 43m
Length of Day
10h 54m
Waxing Crescent, 20% of the Moon is Illuminated
Feb 3
Waxing Crescent
Feb 6
First Quarter
Feb 14
Full
Feb 22
Last Quarter
Mar 1
New

Hourly Weather History & Observations

Time (CST) Temp. Dew Point Humidity Pressure Visibility Wind Dir Wind Speed Gust Speed Precip Events Conditions
12:15 AM 71.6 °F 69.8 °F 94% 30.01 in 10.0 mi SSW 13.8 mph - N/A   Overcast
12:35 AM 71.6 °F 69.8 °F 94% 30.01 in 10.0 mi SSW 13.8 mph - N/A   Overcast
12:55 AM 71.6 °F 69.8 °F 94% 30.01 in 10.0 mi SSW 12.7 mph - N/A   Overcast
1:15 AM 71.6 °F 69.8 °F 94% 30.01 in 10.0 mi SW 12.7 mph - N/A   Overcast
1:35 AM 69.8 °F 69.8 °F 100% 30.01 in 10.0 mi WSW 13.8 mph - N/A   Overcast
1:55 AM 69.8 °F 68.0 °F 94% 30.02 in 10.0 mi West 11.5 mph - N/A   Overcast
2:15 AM 69.8 °F 69.8 °F 100% 30.01 in 10.0 mi SW 11.5 mph - N/A   Overcast
2:35 AM 69.8 °F 69.8 °F 100% 30.01 in 10.0 mi SW 10.4 mph - N/A   Overcast
2:55 AM 69.8 °F 69.8 °F 100% 30.00 in 10.0 mi SW 12.7 mph - N/A   Overcast
3:15 AM 69.8 °F 69.8 °F 100% 30.00 in 10.0 mi SW 11.5 mph - N/A   Overcast
3:35 AM 69.8 °F 69.8 °F 100% 30.00 in 10.0 mi SW 13.8 mph - N/A   Overcast
3:55 AM 66.2 °F 64.4 °F 94% 30.01 in 10.0 mi NW 23.0 mph - N/A   Overcast
4:15 AM 62.6 °F 62.6 °F 100% 30.02 in 10.0 mi NNW 19.6 mph - N/A   Overcast
4:35 AM 60.8 °F 59.0 °F 94% 30.02 in 10.0 mi North 18.4 mph - N/A   Overcast
4:55 AM 60.8 °F 59.0 °F 94% 30.03 in 10.0 mi North 18.4 mph - N/A   Overcast
5:15 AM 60.8 °F 59.0 °F 94% 30.03 in 10.0 mi North 17.3 mph - N/A   Overcast
5:35 AM 59.0 °F 59.0 °F 100% 30.04 in 10.0 mi North 20.7 mph - N/A   Overcast
5:55 AM 59.0 °F 59.0 °F 100% 30.04 in 10.0 mi North 19.6 mph - N/A   Overcast
6:15 AM 59.0 °F 57.2 °F 94% 30.05 in 10.0 mi North 20.7 mph - N/A   Overcast
6:35 AM 57.2 °F 57.2 °F 100% 30.07 in 10.0 mi North 18.4 mph - N/A   Overcast
6:55 AM 57.2 °F 55.4 °F 94% 30.07 in 10.0 mi North 21.9 mph - N/A   Overcast
7:15 AM 55.4 °F 53.6 °F 94% 30.08 in 10.0 mi North 21.9 mph - N/A   Overcast
7:35 AM 55.4 °F 53.6 °F 94% 30.09 in 10.0 mi North 19.6 mph - N/A   Overcast
7:55 AM 55.4 °F 51.8 °F 88% 30.10 in 10.0 mi North 20.7 mph - N/A   Overcast
8:15 AM 53.6 °F 51.8 °F 94% 30.11 in 10.0 mi North 23.0 mph - N/A   Overcast
8:35 AM 53.6 °F 50.0 °F 88% 30.11 in 10.0 mi North 21.9 mph - N/A   Overcast
8:55 AM 53.6 °F 50.0 °F 88% 30.12 in 10.0 mi North 21.9 mph - N/A   Overcast
9:15 AM 53.6 °F 50.0 °F 88% 30.13 in 10.0 mi North 23.0 mph - N/A   Overcast
9:35 AM 51.8 °F 50.0 °F 94% 30.14 in 10.0 mi North 21.9 mph - N/A   Overcast
9:55 AM 51.8 °F 50.0 °F 94% 30.14 in 10.0 mi North 21.9 mph - N/A   Overcast
10:15 AM 51.8 °F 50.0 °F 94% 30.14 in 10.0 mi North 19.6 mph - N/A   Overcast
10:35 AM 51.8 °F 50.0 °F 94% 30.15 in 10.0 mi NNE 18.4 mph - N/A   Overcast
10:55 AM 51.8 °F 50.0 °F 94% 30.14 in 10.0 mi NNE 18.4 mph - N/A   Overcast
11:15 AM 51.8 °F 48.2 °F 88% 30.14 in 10.0 mi NNE 17.3 mph - N/A   Overcast
11:35 AM 51.8 °F 48.2 °F 88% 30.14 in 10.0 mi NNE 16.1 mph - N/A   Overcast
11:55 AM 50.0 °F 48.2 °F 94% 30.13 in 10.0 mi NNE 18.4 mph - N/A   Overcast
12:15 PM 50.0 °F 48.2 °F 94% 30.12 in 10.0 mi NNE 18.4 mph - N/A   Overcast
12:35 PM 50.0 °F 48.2 °F 94% 30.11 in 10.0 mi NNE 19.6 mph - N/A   Overcast
12:55 PM 51.8 °F 48.2 °F 88% 30.09 in 10.0 mi NNE 19.6 mph - N/A   Overcast
1:15 PM 51.8 °F 50.0 °F 94% 30.09 in 10.0 mi NNE 18.4 mph - N/A   Overcast
1:35 PM 51.8 °F 50.0 °F 94% 30.08 in 10.0 mi North 19.6 mph - N/A   Overcast
1:55 PM 51.8 °F 50.0 °F 94% 30.08 in 10.0 mi NNE 19.6 mph - N/A   Overcast
2:15 PM 51.8 °F 50.0 °F 94% 30.08 in 10.0 mi NNE 17.3 mph - N/A   Overcast
2:35 PM 51.8 °F 50.0 °F 94% 30.08 in 10.0 mi NNE 19.6 mph - N/A   Overcast
2:55 PM 51.8 °F 50.0 °F 94% 30.08 in 10.0 mi NNE 18.4 mph - N/A   Overcast
3:15 PM 51.8 °F 50.0 °F 94% 30.08 in 10.0 mi NNE 19.6 mph - N/A   Overcast
3:35 PM 51.8 °F 50.0 °F 94% 30.08 in 10.0 mi NNE 18.4 mph - N/A   Overcast
3:55 PM 51.8 °F 50.0 °F 94% 30.09 in 10.0 mi NE 15.0 mph - N/A   Overcast
4:15 PM 51.8 °F 50.0 °F 94% 30.10 in 10.0 mi NE 16.1 mph - N/A   Overcast
4:35 PM 51.8 °F 50.0 °F 94% 30.10 in 10.0 mi NE 15.0 mph - N/A   Overcast
4:55 PM 51.8 °F 50.0 °F 94% 30.09 in 10.0 mi NE 16.1 mph - N/A   Overcast
5:15 PM 51.8 °F 50.0 °F 94% 30.09 in 10.0 mi NE 17.3 mph - N/A   Overcast
5:35 PM 51.8 °F 50.0 °F 94% 30.08 in 10.0 mi NE 21.9 mph - N/A   Overcast
5:55 PM 51.8 °F 50.0 °F 94% 30.09 in 10.0 mi NE 21.9 mph - N/A   Overcast
6:15 PM 51.8 °F 51.8 °F 100% 30.10 in 10.0 mi NE 18.4 mph - N/A   Overcast
6:35 PM 51.8 °F 51.8 °F 100% 30.11 in 10.0 mi NE 17.3 mph - N/A   Overcast
6:55 PM 51.8 °F 50.0 °F 94% 30.11 in 10.0 mi NE 18.4 mph - N/A   Overcast
7:15 PM 51.8 °F 51.8 °F 100% 30.11 in 10.0 mi NE 17.3 mph - N/A   Overcast
7:35 PM 53.6 °F 51.8 °F 94% 30.12 in 10.0 mi NE 17.3 mph - N/A   Overcast
7:55 PM 53.6 °F 51.8 °F 94% 30.12 in 10.0 mi NE 18.4 mph - N/A   Overcast
8:15 PM 53.6 °F 51.8 °F 94% 30.12 in 10.0 mi NE 18.4 mph - N/A   Overcast
8:35 PM 53.6 °F 51.8 °F 94% 30.12 in 10.0 mi NE 17.3 mph - N/A   Overcast
8:55 PM 53.6 °F 51.8 °F 94% 30.12 in 10.0 mi NE 17.3 mph - N/A   Overcast
9:15 PM 53.6 °F 53.6 °F 100% 30.12 in 10.0 mi NE 17.3 mph - N/A   Overcast
9:35 PM 55.4 °F 53.6 °F 94% 30.11 in 10.0 mi NE 18.4 mph - N/A   Overcast
9:55 PM 55.4 °F 53.6 °F 94% 30.11 in 10.0 mi NE 17.3 mph - N/A   Overcast
10:15 PM 55.4 °F 53.6 °F 94% 30.11 in 10.0 mi ENE 18.4 mph - N/A   Overcast
10:35 PM 55.4 °F 53.6 °F 94% 30.11 in 10.0 mi NE 18.4 mph - N/A   Overcast
10:55 PM 55.4 °F 53.6 °F 94% 30.11 in 10.0 mi NE 18.4 mph - N/A   Overcast
11:15 PM 55.4 °F 53.6 °F 94% 30.11 in 10.0 mi NE 18.4 mph - N/A   Overcast
11:35 PM 55.4 °F 53.6 °F 94% 30.10 in 10.0 mi NE 18.4 mph - N/A   Overcast
11:55 PM 55.4 °F 53.6 °F 94% 30.10 in 10.0 mi NE 19.6 mph - N/A   Overcast